Tacoma, WA

4:41 AM PST on February 26, 2017 (GMT -0800)
McChord Air Force Base

Weather History for KTCM - September, 2013

Change the Weather History Date:

Thursday, September 5, 2013

  Actual Average Record
Temperature  
Mean Temperature 64 °F -  
Max Temperature 68 °F 71 °F 88 °F (1955)
Min Temperature 60 °F 48 °F 39 °F (2002)
Degree Days  
Heating Degree Days 1    
Growing Degree Days 14 (Base 50)    
Moisture  
Dew Point 61 °F    
Average Humidity 94    
Maximum Humidity 100    
Minimum Humidity 73    
Precipitation  
Precipitation 0.59 in - - ()
Sea Level Pressure  
Sea Level Pressure 30.01 in    
Wind  
Wind Speed 5 mph (SSW)    
Max Wind Speed 14 mph    
Max Gust Speed -    
Visibility 8 miles    
Events Rain , Thunderstorm    
Averages and records for this station are not official NWS values.
T = Trace of Precipitation, MM = Missing Value Source: NWS Daily Summary

Daily Weather History Graph

Daily Weather History Graph

Search for Another Location

Airport or City:

Trip Planner

Search our weather history database for the weather conditions in past years. The results will help you decide how hot, cold, wet, or windy it might be!

Date:

Astronomy

Sep. 05, 2013 Rise Set
Actual Time 6:34 AM PDT 7:41 PM PDT
Civil Twilight 6:03 AM PDT 8:12 PM PDT
Nautical Twilight 5:25 AM PDT 8:49 PM PDT
Astronomical Twilight 4:45 AM PDT 9:29 PM PDT
Moon 6:56 AM PDT (9/5) 7:29 PM PDT (9/5)
Length of Visible Light 14h 08m
Length of Day
13h 06m
New Moon, 0% of the Moon is Illuminated
Sep 5
New Moon
Sep 12
First Quarter
Sep 19
Full
Sep 26
Last Quarter
Oct 4
New

Hourly Weather History & Observations

Time (PDT) Temp. Dew Point Humidity Pressure Visibility Wind Dir Wind Speed Gust Speed Precip Events Conditions
12:58 AM 63.1 °F 59.9 °F 89% 30.02 in 10.0 mi Variable 2.3 mph - N/A   Clear
1:58 AM 62.8 °F 60.1 °F 91% 30.03 in 10.0 mi ENE 3.5 mph - N/A   Overcast
2:58 AM 62.8 °F 59.9 °F 90% 30.05 in 10.0 mi WSW 5.8 mph - N/A   Overcast
3:58 AM 62.6 °F 59.9 °F 91% 30.03 in 10.0 mi WNW 6.9 mph - N/A   Overcast
4:06 AM 62.6 °F 60.8 °F 94% 30.02 in 10.0 mi NW 4.6 mph - N/A Rain Light Rain
4:17 AM 62.6 °F 60.8 °F 94% 30.03 in 10.0 mi South 2.3 mph - N/A   Overcast
4:32 AM 62.6 °F 60.8 °F 94% 30.04 in 9.0 mi South 9.2 mph - N/A Rain Light Rain
4:38 AM 62.6 °F 60.8 °F 94% 30.06 in 9.0 mi South 6.9 mph - N/A Rain Light Rain
4:43 AM 62.6 °F 60.8 °F 94% 30.04 in 7.0 mi Variable 1.2 mph - N/A Rain Light Rain
4:48 AM 62.6 °F 60.8 °F 94% 30.02 in 5.0 mi WNW 4.6 mph - N/A Rain Light Rain
4:58 AM 61.7 °F 61.3 °F 99% 30.02 in 6.0 mi Variable 2.3 mph - 0.02 in Rain Light Rain
5:19 AM 60.8 °F 60.8 °F 100% 30.02 in 10.0 mi SE 3.5 mph - N/A   Overcast
5:24 AM 60.8 °F 60.8 °F 100% 30.02 in 10.0 mi South 3.5 mph - N/A   Overcast
5:42 AM 60.8 °F 60.8 °F 100% 30.03 in 8.0 mi NE 2.3 mph - N/A Rain Light Rain
5:51 AM 60.8 °F 60.8 °F 100% 30.03 in 7.0 mi SSE 4.6 mph - N/A Rain , Thunderstorm Light Thunderstorms and Rain
5:56 AM 60.8 °F 60.8 °F 100% 30.04 in 7.0 mi SE 3.5 mph - N/A Rain , Thunderstorm Light Thunderstorms and Rain
5:58 AM 61.3 °F 61.0 °F 99% 30.05 in 7.0 mi Variable 2.3 mph - 0.04 in Rain , Thunderstorm Light Thunderstorms and Rain
6:03 AM 60.8 °F 60.8 °F 100% 30.03 in 7.0 mi NNW 3.5 mph - N/A Rain , Thunderstorm Light Thunderstorms and Rain
6:06 AM 60.8 °F 60.8 °F 100% 30.02 in 7.0 mi WNW 4.6 mph - N/A Rain Light Rain
6:16 AM 60.8 °F 60.8 °F 100% 30.03 in 5.0 mi SE 3.5 mph - N/A Rain Light Rain
6:26 AM 60.8 °F 60.8 °F 100% 30.02 in 7.0 mi NE 3.5 mph - N/A Rain Light Rain
6:51 AM 60.8 °F 60.8 °F 100% 30.03 in 5.0 mi ESE 3.5 mph - N/A Rain Light Rain
6:56 AM 60.8 °F 60.8 °F 100% 30.03 in 6.0 mi East 4.6 mph - N/A Rain Light Rain
6:58 AM 61.2 °F 60.8 °F 99% 30.04 in 7.0 mi East 4.6 mph - 0.04 in Rain Light Rain
7:17 AM 60.8 °F 60.8 °F 100% 30.01 in 6.0 mi Calm Calm - N/A Rain , Thunderstorm Light Thunderstorms and Rain
7:30 AM 60.8 °F 60.8 °F 100% 30.02 in 8.0 mi WSW 4.6 mph - N/A Rain , Thunderstorm Light Thunderstorms and Rain
7:39 AM 60.8 °F 60.8 °F 100% 30.03 in 8.0 mi South 5.8 mph - N/A Rain , Thunderstorm Light Thunderstorms and Rain
7:48 AM 60.8 °F 60.8 °F 100% 30.03 in 5.0 mi Calm Calm - N/A Rain , Thunderstorm Light Thunderstorms and Rain
7:53 AM 60.8 °F 60.8 °F 100% 30.02 in 5.0 mi NNW 1.2 mph - N/A Rain Light Rain
7:58 AM 61.3 °F 61.2 °F 99% 30.04 in 4.0 mi SW 4.6 mph - 0.04 in Rain Light Rain
8:01 AM 60.8 °F 60.8 °F 100% 30.04 in 5.0 mi SW 4.6 mph - N/A Rain , Thunderstorm Light Thunderstorms and Rain
8:27 AM 62.6 °F 60.8 °F 94% 30.03 in 10.0 mi NNE 2.3 mph - N/A Thunderstorm Thunderstorm
8:29 AM 62.6 °F 60.8 °F 94% 30.03 in - North 1.2 mph - N/A Thunderstorm Thunderstorm
8:33 AM 62.6 °F 62.6 °F 100% 30.03 in 10.0 mi North 2.3 mph - N/A   Overcast
8:58 AM 62.6 °F 61.3 °F 96% 30.04 in 10.0 mi NNE 2.3 mph - 0.01 in   Overcast
9:28 AM 62.6 °F 60.8 °F 94% 30.03 in 10.0 mi North 2.3 mph - N/A   Overcast
9:58 AM 63.5 °F 60.1 °F 89% 30.05 in 10.0 mi ENE 2.3 mph - N/A   Overcast
10:58 AM 63.7 °F 59.9 °F 87% 30.05 in 10.0 mi North 8.1 mph - N/A   Overcast
11:18 AM 62.6 °F 59.0 °F 88% 30.04 in 10.0 mi North 13.8 mph - N/A   Overcast
11:58 AM 63.3 °F 59.7 °F 88% 30.05 in 10.0 mi North 12.7 mph - N/A   Overcast
12:13 PM 64.4 °F 60.8 °F 88% 30.04 in 10.0 mi North 10.4 mph - N/A   Overcast
12:18 PM 64.4 °F 59.0 °F 83% 30.04 in 10.0 mi North 11.5 mph - N/A   Overcast
12:53 PM 64.4 °F 59.0 °F 83% 30.03 in 10.0 mi North 10.4 mph - N/A   Overcast
12:58 PM 64.4 °F 59.9 °F 85% 30.04 in 10.0 mi North 10.4 mph - N/A   Overcast
1:03 PM 64.4 °F 60.8 °F 88% 30.03 in 10.0 mi North 10.4 mph - N/A   Overcast
1:58 PM 67.1 °F 59.9 °F 78% 30.02 in 10.0 mi NNW 9.2 mph - N/A   Overcast
2:08 PM 68.0 °F 59.0 °F 73% 30.01 in 10.0 mi North 6.9 mph - N/A   Overcast
2:13 PM 68.0 °F 60.8 °F 78% 30.01 in 10.0 mi North 9.2 mph - N/A   Overcast
2:58 PM 66.9 °F 59.2 °F 76% 30.02 in 10.0 mi North 9.2 mph - N/A   Mostly Cloudy
3:58 PM 65.7 °F 57.7 °F 76% 30.01 in 10.0 mi NNE 5.8 mph - N/A   Scattered Clouds
4:03 PM 66.2 °F 57.2 °F 73% 30.00 in 10.0 mi North 6.9 mph - N/A Thunderstorm Thunderstorm
4:38 PM 66.2 °F 57.2 °F 73% 30.00 in 6.0 mi NNE 2.3 mph - N/A Rain , Thunderstorm Light Thunderstorms and Rain
4:41 PM 66.2 °F 57.2 °F 73% 29.99 in 5.0 mi North 5.8 mph - N/A Rain , Thunderstorm Light Thunderstorms and Rain
4:42 PM 66.2 °F 57.2 °F 73% 29.99 in 4.0 mi North 6.9 mph - N/A Rain Light Rain
4:43 PM 66.2 °F 57.2 °F 73% 29.99 in 4.0 mi North 8.1 mph - N/A Rain , Thunderstorm Light Thunderstorms and Rain
4:58 PM 64.0 °F 59.7 °F 86% 29.98 in 10.0 mi North 9.2 mph - 0.04 in Rain , Thunderstorm Light Thunderstorms and Rain
5:17 PM 64.4 °F 60.8 °F 88% 29.98 in 10.0 mi South 4.6 mph - N/A Rain , Thunderstorm Light Thunderstorms and Rain
5:21 PM 64.4 °F 60.8 °F 88% 29.98 in 10.0 mi South 3.5 mph - N/A Rain , Thunderstorm Light Thunderstorms and Rain
5:26 PM 64.4 °F 60.8 °F 88% 29.98 in 10.0 mi SSW 4.6 mph - N/A Rain , Thunderstorm Light Thunderstorms and Rain
5:45 PM 64.4 °F 60.8 °F 88% 29.97 in 9.0 mi South 3.5 mph - N/A Rain Light Rain
5:58 PM 63.5 °F 61.2 °F 92% 29.98 in 10.0 mi South 4.6 mph - 0.02 in Rain Light Rain
6:08 PM 62.6 °F 62.6 °F 100% 29.98 in 10.0 mi Calm Calm - N/A Rain Light Rain
6:18 PM 62.6 °F 62.6 °F 100% 29.98 in 10.0 mi West 2.3 mph - N/A Rain Light Rain
6:27 PM 62.6 °F 62.6 °F 100% 29.98 in 10.0 mi WNW 2.3 mph - N/A   Overcast
6:52 PM 62.6 °F 62.6 °F 100% 29.97 in 10.0 mi NW 2.3 mph - N/A   Overcast
6:58 PM 63.3 °F 62.2 °F 96% 29.98 in 10.0 mi North 1.2 mph - 0.01 in   Overcast
7:28 PM 62.6 °F 62.6 °F 100% 29.97 in 10.0 mi Calm Calm - N/A   Overcast
7:54 PM 62.6 °F 62.6 °F 100% 29.97 in 10.0 mi SSW 2.3 mph - N/A   Mostly Cloudy
7:55 PM 62.6 °F 62.6 °F 100% 29.97 in 10.0 mi Variable 2.3 mph - N/A Rain Light Rain
7:58 PM 63.3 °F 61.9 °F 95% 29.98 in 10.0 mi SSE 3.5 mph - 0.01 in Rain Light Rain
8:11 PM 62.6 °F 62.6 °F 100% 29.97 in 10.0 mi SSW 2.3 mph - N/A   Overcast
8:58 PM 62.4 °F 62.1 °F 99% 29.97 in 10.0 mi SSW 5.8 mph - 0.01 in   Overcast
9:33 PM 62.6 °F 62.6 °F 100% 29.98 in 10.0 mi South 8.1 mph - N/A Thunderstorm Thunderstorm
9:34 PM 62.6 °F 62.6 °F 100% 29.98 in 10.0 mi South 8.1 mph - N/A Rain , Thunderstorm Light Thunderstorms and Rain
9:45 PM 62.6 °F 62.6 °F 100% 29.98 in 9.0 mi South 5.8 mph - N/A Rain , Thunderstorm Light Thunderstorms and Rain
9:58 PM 62.1 °F 61.7 °F 99% 29.98 in 7.0 mi South 6.9 mph - 0.04 in Rain , Thunderstorm Light Thunderstorms and Rain
9:59 PM 62.6 °F 62.6 °F 100% 29.97 in 8.0 mi South 5.8 mph - N/A Rain Light Rain
10:00 PM 62.6 °F 62.6 °F 100% 29.97 in 9.0 mi South 5.8 mph - N/A Rain , Thunderstorm Light Thunderstorms and Rain
10:15 PM 62.6 °F 62.6 °F 100% 29.98 in 6.0 mi SSW 6.9 mph - N/A Rain , Thunderstorm Light Thunderstorms and Rain
10:17 PM 62.6 °F 62.6 °F 100% 29.98 in 7.0 mi SSW 5.8 mph - N/A Rain Light Rain
10:55 PM 62.6 °F 62.6 °F 100% 29.98 in 10.0 mi SSW 6.9 mph - N/A Rain , Thunderstorm Light Thunderstorms and Rain
10:58 PM 62.1 °F 61.7 °F 99% 29.99 in 10.0 mi SSW 5.8 mph - 0.07 in Rain , Thunderstorm Light Thunderstorms and Rain
11:08 PM 62.6 °F 60.8 °F 94% 29.99 in 10.0 mi SSE 10.4 mph - N/A Rain , Thunderstorm Light Thunderstorms and Rain
11:10 PM 62.6 °F 60.8 °F 94% 29.99 in 10.0 mi SSE 5.8 mph - N/A Rain Light Rain
11:15 PM 60.8 °F 60.8 °F 100% 29.99 in 9.0 mi SSE 5.8 mph - N/A Rain Rain
11:16 PM 60.8 °F 60.8 °F 100% 29.98 in 9.0 mi SSE 5.8 mph - N/A Rain Rain
11:21 PM 60.8 °F 60.8 °F 100% 29.99 in 7.0 mi SSE 5.8 mph - N/A Rain Rain
11:26 PM 60.8 °F 60.8 °F 100% 29.99 in 5.0 mi Variable 4.6 mph - N/A Rain Heavy Rain
11:36 PM 60.8 °F 60.8 °F 100% 29.99 in 3.0 mi South 5.8 mph - N/A Rain Heavy Rain
11:41 PM 60.8 °F 60.8 °F 100% 29.99 in 3.0 mi South 6.9 mph - N/A Rain Rain
11:56 PM 60.8 °F 60.8 °F 100% 29.99 in 5.0 mi SSW 4.6 mph - N/A Rain Rain
11:58 PM 60.8 °F 60.8 °F 100% 30.00 in 5.0 mi SSW 5.8 mph - 0.24 in Rain Rain